Página principal
METAR-TAF:

METAR-TAF

Aeroportos :

Saint-Louis, Senegal

latitude: 16-03N, longitude: 016-27W, altura: 4 m

Observação actual do tempo

O boletim foi feito há 1 hora e 13 minutos, às 15:00 UTC
Vento 10 kt de norte
Temperatura 27°C
Humidade 58%
Pressão 1010 hPa
Visibilidade 10 km ou mais
sem nuvens abaixo de 1500 metros e sem cumulonimbus

METAR: GOSS 251500Z 36010KT CAVOK 27/18 Q1010

Hora: 16:13 (16:13 UTC)

Previsão

O boletim foi feito há 4 horas e 43 minutos, às 11:30 UTC
Previsão válida de 25 às 12 UTC a 26 às 12 UTC
Vento 8 kt de norte
Visibilidade 10 km ou mais
sem nuvens abaixo de 1500 metros e sem cumulonimbus

TAF: GOSS 251130Z 2512/2612 36008KT CAVOK

Observações e previsões do tempo de mais de 4000 aeroportos (mensagens METAR e TAF).

As estações disponíveis são os pontos amarelos e vermelhos sobre o mapa.

Mova o rato sobre o mapa para ver o nome da estação.

Depois clique no ponto para visualizar as observações e previsões meteorológicas.

Para alterar o mapa : clique nos botões verdes com uma cruz preta para aumentar o zoom; no botão verde com uma pitada de zoom; ou nas setas verdes para mapas adjacentes.


METAR-TAF: